STARLINK-31394

operational
NORAD ID: 59185 Int'l Des: 2024-045 Owner: SPXS Country: US Constellation: starlink
LEOCIRCULAR

About STARLINK-31394

Description loading...

Live Position

Loading 3D Globe...

Upcoming Passes

Altitude History

Altitude vs Time

uPlot chart will show altitude changes over time

Two-Line Element Set

1 59185U 24045H 25250.87387102 -.00003786 00000-0 -12810-3 0 9994
2 59185 43.0017 34.4841 0000819 182.3976 177.6872 15.27592527 85324
Epoch: Sep 7, 2025 • Age: 19 hours

Current Status

Altitude 490.2 km
Velocity 7.62 km/s
Sub-Earth Point -26.81°S, 135.16°E
Launch Date Mar 11, 2024
Age 1.4 years
Type internet

Technical Details

Classification Payload
Mass 730.00 kg
Dry Mass 700.00 kg
Total Mass 730.00 kg
Length 0.30 m
Diameter 4.10 m
Span 29.00 m
Shape Box + pan
Manufacturer SPXS
Bus Type Starlink V2M
Phase Status In Orbit
Owner/State SPXS/US

Large Constellations

Loading constellations...